This is the latest recevied weather packets stored in our database for station/object DL4NBA-1. If no packets are shown the sender has not sent any weather packets the latest 10 day(s).
| Time | Temp. | Humidity | Pressure | Rain* | Wind** | Luminosity | Snow |
|---|---|---|---|---|---|---|---|
| 1777831587 | 19.44° C | - | - | 0 mm | 0.89 m/s, 277° | - | - |
| 1777831289 | 20° C | - | - | 0 mm | 1.34 m/s, 285° | - | - |
| 1777830990 | 19.44° C | - | - | 0 mm | 1.34 m/s, 291° | - | - |
| 1777830691 | 20° C | - | - | 0 mm | 0.89 m/s, 274° | - | - |
| 1777830389 | 20.56° C | - | - | 0 mm | 0.89 m/s, 277° | - | - |
| 1777830090 | 20.56° C | - | - | 0 mm | 1.34 m/s, 267° | - | - |
| 1777829791 | 21.11° C | - | - | 0 mm | 1.34 m/s, 311° | - | - |
| 1777829493 | 21.67° C | - | - | 0 mm | 1.34 m/s, 307° | - | - |
| 1777828593 | 22.78° C | - | - | 0 mm | 1.79 m/s, 300° | - | - |
| 1777828294 | 24.44° C | - | - | 0 mm | 2.24 m/s, 300° | - | - |
| 1777827995 | 23.89° C | - | - | 0 mm | 3.13 m/s, 295° | - | - |
| 1777827696 | 23.89° C | - | - | 0 mm | 3.13 m/s, 278° | - | - |
| 1777826797 | 25° C | - | - | 0 mm | 2.68 m/s, 262° | - | - |
| 1777826498 | 23.89° C | - | - | 0 mm | 4.47 m/s, 314° | - | - |
| 1777826199 | 25° C | - | - | 0 mm | 3.13 m/s, 307° | - | - |
| 1777825897 | 24.44° C | - | - | 0 mm | 2.24 m/s, 291° | - | - |
| 1777825598 | 22.78° C | - | - | 0 mm | 2.24 m/s, 298° | - | - |
| 1777825299 | 22.78° C | - | - | 0 mm | 3.13 m/s, 263° | - | - |
| 1777823802 | 22.78° C | - | - | 0 mm | 4.02 m/s, 273° | - | - |
| 1777823503 | 22.78° C | - | - | 0 mm | 3.58 m/s, 295° | - | - |
| 1777823204 | 22.78° C | - | - | 0 mm | 4.02 m/s, 285° | - | - |
| 1777822602 | 22.78° C | - | - | 0 mm | 4.02 m/s, 270° | - | - |
| 1777822302 | 22.78° C | - | - | 0 mm | 3.13 m/s, 262° | - | - |
| 1777822003 | 22.78° C | - | - | 0 mm | 4.92 m/s, 266° | - | - |
| 1777821704 | 23.33° C | - | - | 0 mm | 2.68 m/s, 280° | - | - |
* Rain latest hour (hover to see other rain measurements)
** Current wind speed in m/s (hover to see current wind gust speed)